• In Österreich
  • Länderverzeichnis
  • Für 7 Tage
  • Wassertemperatur
  • Satellitenkarten
  • Wetterkarte
  • News
  • Widgets
  • user-avatar
    Anmelden

    Stündliche Wetter Popcovo

    Heute, 22 September, Samstag

    Zeit Temperatur Niederschläge Wind Luftdruck Luftfeuchtigkeit
    00:00 +16°C° 0 mm 2 m/S 748 mmHg 92%
    01:00 +16°C° 0 mm 2 m/S 748 mmHg 93%
    02:00 +15°C° 0 mm 2 m/S 748 mmHg 93%
    03:00 +14°C° 0 mm 3 m/S 747 mmHg 94%
    04:00 +14°C° 0 mm 3 m/S 747 mmHg 95%
    05:00 +14°C° 0 mm 3 m/S 747 mmHg 95%
    06:00 +16°C° 0 mm 3 m/S 746 mmHg 92%
    07:00 +17°C° 0 mm 4 m/S 746 mmHg 88%
    08:00 +18°C° 0 mm 4 m/S 746 mmHg 85%
    09:00 +20°C° 0 mm 5 m/S 746 mmHg 77%
    10:00 +21°C° 0 mm 5 m/S 745 mmHg 68%
    11:00 +23°C° 0 mm 6 m/S 745 mmHg 60%
    12:00 +23°C° 0 mm 6 m/S 745 mmHg 58%
    13:00 +24°C° 0 mm 6 m/S 744 mmHg 55%
    14:00 +24°C° 0 mm 6 m/S 744 mmHg 52%
    15:00 +23°C° 0 mm 5 m/S 743 mmHg 57%
    16:00 +22°C° 0 mm 5 m/S 743 mmHg 62%
    17:00 +21°C° 0 mm 4 m/S 742 mmHg 66%
    18:00 +20°C° 0.2 mm 4 m/S 742 mmHg 71%
    19:00 +19°C° 0.2 mm 4 m/S 742 mmHg 75%
    20:00 +18°C° 0.2 mm 4 m/S 742 mmHg 79%
    21:00 +17°C° 0.1 mm 4 m/S 742 mmHg 83%
    22:00 +14°C° 0.1 mm 3 m/S 742 mmHg 86%
    23:00 +14°C° 0.1 mm 2 m/S 742 mmHg 90%

    Morgen, 23 September, Sonntag

    Zeit Temperatur Niederschläge Wind Luftdruck Luftfeuchtigkeit
    00:00 +12°C° 0.1 mm 3 m/S 742 mmHg 89%
    01:00 +12°C° 0.1 mm 3 m/S 742 mmHg 89%
    02:00 +11°C° 0.1 mm 3 m/S 742 mmHg 88%
    03:00 +12°C° 0.3 mm 2 m/S 742 mmHg 89%
    04:00 +12°C° 0.3 mm 2 m/S 742 mmHg 90%
    05:00 +10°C° 0.3 mm 2 m/S 741 mmHg 90%
    06:00 +10°C° 1 mm 2 m/S 741 mmHg 91%
    07:00 +10°C° 1 mm 2 m/S 741 mmHg 92%
    08:00 +10°C° 1 mm 3 m/S 741 mmHg 93%
    09:00 +10°C° 1.2 mm 3 m/S 741 mmHg 93%
    10:00 +10°C° 1.2 mm 3 m/S 741 mmHg 92%
    11:00 +10°C° 1.2 mm 3 m/S 741 mmHg 92%
    12:00 +11°C° 0.3 mm 3 m/S 741 mmHg 87%
    13:00 +12°C° 0.3 mm 3 m/S 741 mmHg 83%
    14:00 +12°C° 0.3 mm 3 m/S 741 mmHg 79%
    15:00 +12°C° 0.1 mm 3 m/S 741 mmHg 81%
    16:00 +11°C° 0.1 mm 3 m/S 741 mmHg 83%
    17:00 +12°C° 0.1 mm 2 m/S 741 mmHg 84%
    18:00 +10°C° 0 mm 2 m/S 741 mmHg 86%
    19:00 +9°C° 0 mm 3 m/S 741 mmHg 89%
    20:00 +9°C° 0 mm 3 m/S 741 mmHg 91%
    21:00 +8°C° 0 mm 3 m/S 741 mmHg 91%
    22:00 +8°C° 0 mm 3 m/S 741 mmHg 92%
    23:00 +7°C° 0 mm 3 m/S 741 mmHg 92%

    übermorgen, 24 September, Montag

    Zeit Temperatur Niederschläge Wind Luftdruck Luftfeuchtigkeit
    00:00 +7°C° 0 mm 3 m/S 741 mmHg 93%
    01:00 +7°C° 0 mm 3 m/S 741 mmHg 94%
    02:00 +7°C° 0 mm 3 m/S 741 mmHg 94%
    03:00 +5°C° 0 mm 3 m/S 741 mmHg 95%
    04:00 +5°C° 0 mm 3 m/S 741 mmHg 95%
    05:00 +5°C° 0 mm 3 m/S 741 mmHg 96%
    06:00 +7°C° 0 mm 3 m/S 741 mmHg 93%
    07:00 +8°C° 0 mm 3 m/S 741 mmHg 90%
    08:00 +8°C° 0 mm 3 m/S 741 mmHg 87%
    09:00 +9°C° 0 mm 3 m/S 741 mmHg 82%
    10:00 +11°C° 0 mm 3 m/S 741 mmHg 77%
    11:00 +12°C° 0 mm 3 m/S 741 mmHg 72%
    12:00 +12°C° 0 mm 3 m/S 741 mmHg 69%
    13:00 +13°C° 0 mm 2 m/S 741 mmHg 67%
    14:00 +14°C° 0 mm 2 m/S 740 mmHg 64%
    15:00 +13°C° 0.6 mm 2 m/S 740 mmHg 72%
    16:00 +11°C° 0.6 mm 3 m/S 739 mmHg 80%
    17:00 +10°C° 0.6 mm 3 m/S 739 mmHg 88%
    18:00 +9°C° 1 mm 3 m/S 738 mmHg 90%
    19:00 +8°C° 1 mm 4 m/S 737 mmHg 91%
    20:00 +8°C° 1 mm 5 m/S 736 mmHg 92%
    21:00 +8°C° 2.4 mm 5 m/S 734 mmHg 93%
    22:00 +7°C° 2.4 mm 6 m/S 733 mmHg 93%
    23:00 +7°C° 2.4 mm 6 m/S 731 mmHg 93%

    25 September, Dienstag

    Zeit Temperatur Niederschläge Wind Luftdruck Luftfeuchtigkeit
    00:00 +7°C° 3.5 mm 6 m/S 730 mmHg 93%
    01:00 +7°C° 3.5 mm 6 m/S 729 mmHg 93%
    02:00 +7°C° 3.5 mm 6 m/S 727 mmHg 93%
    03:00 +7°C° 1.9 mm 6 m/S 727 mmHg 93%
    04:00 +7°C° 1.9 mm 5 m/S 726 mmHg 93%
    05:00 +8°C° 1.9 mm 4 m/S 725 mmHg 93%
    06:00 +9°C° 0.6 mm 3 m/S 725 mmHg 92%
    07:00 +8°C° 0.6 mm 3 m/S 725 mmHg 92%
    08:00 +8°C° 0.6 mm 3 m/S 725 mmHg 92%
    09:00 +8°C° 0.4 mm 3 m/S 725 mmHg 92%
    10:00 +7°C° 0.4 mm 4 m/S 726 mmHg 91%
    11:00 +7°C° 0.4 mm 4 m/S 726 mmHg 91%
    12:00 +7°C° 0.6 mm 5 m/S 727 mmHg 90%
    13:00 +7°C° 0.6 mm 6 m/S 728 mmHg 89%
    14:00 +6°C° 0.6 mm 7 m/S 728 mmHg 89%
    15:00 +5°C° 0.7 mm 8 m/S 729 mmHg 88%
    16:00 +5°C° 0.7 mm 8 m/S 730 mmHg 87%
    17:00 +5°C° 0.7 mm 9 m/S 731 mmHg 86%
    18:00 +3°C° 0.5 mm 9 m/S 732 mmHg 86%
    19:00 +3°C° 0.5 mm 9 m/S 732 mmHg 85%
    20:00 +3°C° 0.5 mm 9 m/S 733 mmHg 85%
    21:00 +4°C° 0.2 mm 8 m/S 734 mmHg 85%
    22:00 +4°C° 0.2 mm 8 m/S 734 mmHg 84%
    23:00 +2°C° 0.2 mm 8 m/S 735 mmHg 84%

    26 September, Mittwoch

    Zeit Temperatur Niederschläge Wind Luftdruck Luftfeuchtigkeit
    00:00 +2°C° 0 mm 8 m/S 736 mmHg 83%
    01:00 +3°C° 0 mm 7 m/S 736 mmHg 83%
    02:00 +2°C° 0 mm 7 m/S 737 mmHg 82%
    03:00 +2°C° 0 mm 7 m/S 738 mmHg 82%
    04:00 +1°C° 0 mm 6 m/S 738 mmHg 82%
    05:00 +1°C° 0 mm 6 m/S 739 mmHg 82%
    06:00 +1°C° 0 mm 6 m/S 740 mmHg 80%
    07:00 +1°C° 0 mm 6 m/S 741 mmHg 78%
    08:00 +1°C° 0 mm 6 m/S 741 mmHg 75%
    09:00 +3°C° 0 mm 6 m/S 742 mmHg 71%
    10:00 +4°C° 0 mm 6 m/S 743 mmHg 67%
    11:00 +6°C° 0 mm 5 m/S 743 mmHg 63%
    12:00 +6°C° 0 mm 5 m/S 744 mmHg 61%
    13:00 +7°C° 0 mm 5 m/S 745 mmHg 60%
    14:00 +7°C° 0 mm 5 m/S 746 mmHg 58%
    15:00 +6°C° 0 mm 4 m/S 746 mmHg 61%
    16:00 +7°C° 0 mm 3 m/S 747 mmHg 65%
    17:00 +6°C° 0 mm 2 m/S 747 mmHg 68%
    18:00 +5°C° 0 mm 2 m/S 748 mmHg 71%
    19:00 +4°C° 0 mm 2 m/S 748 mmHg 74%
    20:00 +3°C° 0 mm 2 m/S 749 mmHg 77%
    21:00 +2°C° 0 mm 2 m/S 749 mmHg 78%
    22:00 +2°C° 0 mm 2 m/S 749 mmHg 80%
    23:00 +1°C° 0 mm 2 m/S 750 mmHg 81%

    27 September, Donnerstag

    Zeit Temperatur Niederschläge Wind Luftdruck Luftfeuchtigkeit
    00:00 +1°C° 0 mm 2 m/S 750 mmHg 81%
    01:00 +1°C° 0 mm 2 m/S 750 mmHg 82%
    02:00 +1°C° 0 mm 2 m/S 750 mmHg 82%
    03:00 0°C° 0 mm 3 m/S 749 mmHg 80%
    04:00 +1°C° 0 mm 3 m/S 749 mmHg 78%
    05:00 +1°C° 0 mm 3 m/S 749 mmHg 76%
    06:00 +1°C° 0 mm 4 m/S 748 mmHg 73%
    07:00 +2°C° 0 mm 5 m/S 747 mmHg 69%
    08:00 +3°C° 0 mm 6 m/S 747 mmHg 65%
    09:00 +4°C° 0.1 mm 6 m/S 746 mmHg 66%
    10:00 +5°C° 0.1 mm 7 m/S 745 mmHg 67%
    11:00 +6°C° 0.1 mm 8 m/S 744 mmHg 68%
    12:00 +5°C° 0.8 mm 8 m/S 744 mmHg 74%
    13:00 +5°C° 0.8 mm 8 m/S 743 mmHg 79%
    14:00 +5°C° 0.8 mm 8 m/S 742 mmHg 84%
    15:00 +5°C° 1 mm 8 m/S 741 mmHg 85%
    16:00 +5°C° 1 mm 8 m/S 740 mmHg 87%
    17:00 +6°C° 1 mm 8 m/S 739 mmHg 88%
    18:00 +6°C° 0.2 mm 8 m/S 739 mmHg 88%
    19:00 +7°C° 0.2 mm 8 m/S 738 mmHg 88%
    20:00 +7°C° 0.2 mm 8 m/S 738 mmHg 88%
    21:00 +9°C° 0.1 mm 7 m/S 738 mmHg 88%
    22:00 +9°C° 0.1 mm 7 m/S 738 mmHg 88%
    23:00 +9°C° 0.1 mm 7 m/S 738 mmHg 89%
    Mehr zeigen